[[{"header":{"parameterUnit":"m.s-1","parameterCategory":1,"la1":30.2991,"la2":30.254,"lo1":-89.0895,"lo2":-89.0444,"dy":0.0017,"dx":0.0017,"nx":28,"ny":28,"refTime":"2025-11-26T09:00:00:Z","depth":0,"parameterNumber":2,"parameterNumberName":"U-component_of_WINDS"},"data":[0,0,0,0,0,0,0,0,0,0,0,0,0,0,0,0,0,0,0,0,0,0,0,0,0,0,0,0,0,0,0,0,0,0,0,0,0,0,0,0,0,0,0,0,0,0,0,0,0,0,0,0,0,0,0,0,0,0,-0.6193,-0.6194,0,-0.628,-0.6281,-0.6282,-0.6262,-0.626,-0.6259,-0.6257,-0.635,-0.6353,-0.6357,0,0,0,0,0,0,0,0,0,0,0,0,0,-0.6013,-0.6017,-0.6193,-0.6194,-0.6195,-0.628,-0.6281,-0.6282,-0.6262,-0.626,-0.6258,-0.6256,-0.6348,-0.6353,-0.6358,0,0,0,0,0,0,0,0,0,0,0,0,0,-0.6095,-0.6018,-0.6193,-0.6196,-0.6197,-0.628,-0.6281,-0.6283,-0.6263,-0.626,-0.6258,-0.6255,-0.6347,-0.6353,-0.6358,-0.6445,0,0,-0.6377,-0.6379,0,0,0,0,0,0,0,0,-0.609,-0.6101,-0.6194,-0.6196,-0.6197,-0.6258,-0.6251,-0.6337,-0.6263,-0.6238,-0.6257,-0.6254,-0.6321,-0.6329,-0.6351,-0.645,-0.6454,-0.6377,-0.6381,-0.6384,-0.6385,0,0,0,0,0,0,0,-0.6085,-0.6098,-0.6228,-0.6196,-0.6197,-0.6193,-0.6202,-0.6268,-0.6293,-0.624,-0.6239,-0.6249,-0.6322,-0.6345,-0.6353,-0.6455,-0.6377,-0.6383,-0.6386,-0.6389,-0.663,-0.6632,0,0,0,0,0,0,-0.6077,-0.6093,-0.6225,-0.623,-0.6136,-0.6198,-0.6208,-0.6241,-0.6292,-0.6297,-0.6251,-0.6248,-0.6336,-0.6346,-0.6356,-0.6462,-0.6384,-0.6389,-0.6393,-0.6627,-0.663,-0.6633,0,0,0,0,0,0,-0.6074,-0.6089,-0.6221,-0.6161,-0.6178,-0.6204,-0.6241,-0.6244,-0.6267,-0.63,-0.6305,-0.6271,-0.6335,-0.6348,-0.6423,-0.6465,-0.6392,-0.6397,-0.6624,-0.6628,-0.6632,-0.6674,0,0,0,0,0,0,-0.6068,-0.6088,-0.6121,-0.6162,-0.6181,-0.6286,-0.6243,-0.6247,-0.6277,-0.6274,-0.632,-0.6325,-0.6334,-0.6414,-0.6429,-0.6472,-0.6402,-0.662,-0.6625,-0.663,-0.6669,-0.6679,-0.6688,0,0,0,0,0,-0.6062,-0.613,-0.6123,-0.6139,-0.6223,-0.6289,-0.63,-0.6308,-0.6281,-0.6315,-0.6335,-0.6323,-0.6457,-0.6422,-0.6439,-0.6484,-0.6617,-0.6624,-0.663,-0.6665,-0.6677,-0.6688,0,0,0,0,0,0,-0.6095,-0.6136,-0.6128,-0.6211,-0.6246,-0.6285,-0.6328,-0.632,-0.6365,-0.636,-0.6368,-0.6379,-0.6456,-0.6477,-0.6437,-0.6571,-0.6534,-0.6544,-0.6555,-0.6567,-0.6576,-0.657,-0.6407,0,0,0,0,0,-0.6111,-0.6161,-0.6194,-0.6264,-0.6282,-0.6302,-0.6331,-0.6334,-0.6371,-0.6387,-0.6413,-0.6451,-0.6501,-0.6535,-0.6583,-0.6671,-0.6682,-0.671,-0.672,-0.6727,-0.6737,-0.6786,-0.6799,-0.6654,-0.6654,-0.6654,0,0,-0.6147,-0.6175,-0.6206,-0.6271,-0.6299,-0.6351,-0.6315,-0.6372,-0.6411,-0.6396,-0.6469,-0.6489,-0.6532,-0.6614,-0.6652,-0.6634,-0.6778,-0.6735,-0.6741,-0.6747,-0.6793,-0.6807,-0.6819,-0.6658,-0.6657,-0.6657,0,0,-0.6238,-0.6264,-0.6326,-0.6354,-0.6395,-0.6408,-0.6423,-0.6462,-0.6475,-0.6548,-0.6538,-0.6584,-0.6671,-0.6702,-0.6729,-0.6831,-0.6822,-0.6846,-0.6896,-0.6944,-0.6955,-0.6965,-0.7003,-0.7016,-0.6855,-0.6855,-0.6855,0,-0.6278,-0.6355,-0.6359,-0.6416,-0.6446,-0.6432,-0.6496,-0.6523,-0.6579,-0.66,-0.6579,-0.6687,-0.6715,-0.6805,-0.6829,-0.6851,-0.6869,-0.6842,-0.6953,-0.6963,-0.6973,-0.7009,-0.7023,-0.6858,-0.6857,-0.6857,-0.6857,0,-0.6402,-0.6455,-0.65,-0.6553,-0.6587,-0.6647,-0.6661,-0.6695,-0.6694,-0.6709,-0.6784,-0.6816,-0.6871,-0.6892,-0.6892,-0.6982,-0.697,-0.695,-0.6914,-0.699,-0.7024,-0.7037,-0.6862,-0.6861,-0.686,-0.6859,0,0,-0.6519,-0.6572,-0.6589,-0.6613,-0.6657,-0.6699,-0.6758,-0.681,-0.684,-0.6878,-0.693,-0.7002,-0.6985,-0.7015,-0.7018,-0.706,-0.714,-0.7036,-0.7037,-0.7056,-0.7242,-0.7258,-0.7274,-0.7133,-0.7135,-0.7137,-0.7239,0,-0.6616,-0.672,-0.6725,-0.682,-0.687,-0.6857,-0.6908,-0.6942,-0.6957,-0.7002,-0.7018,-0.7071,-0.7042,-0.7061,-0.7101,-0.7121,-0.7178,-0.7114,-0.7182,-0.7184,-0.7174,-0.7291,-0.7308,-0.7403,-0.7252,-0.7254,-0.7256,0,-0.6744,-0.6785,-0.6885,-0.6922,-0.6943,-0.6989,-0.7037,-0.708,-0.7117,-0.7125,-0.7159,-0.7156,-0.7217,-0.7176,-0.7262,-0.7218,-0.7246,-0.726,-0.7264,-0.7272,-0.7227,-0.7305,-0.7433,-0.7448,-0.7277,-0.7275,-0.7274,0,-0.6822,-0.6902,-0.6972,-0.6993,-0.7037,-0.707,-0.709,-0.7125,-0.7156,-0.7198,-0.7218,-0.7267,-0.7294,-0.7332,-0.7343,-0.7312,-0.7429,-0.7388,-0.7439,-0.7438,-0.7466,-0.7465,-0.7602,-0.748,-0.748,-0.748,-0.7479,0,-0.6931,-0.6994,-0.7008,-0.7051,-0.712,-0.7125,-0.7193,-0.7211,-0.7242,-0.7289,-0.728,-0.7325,-0.7335,-0.7382,-0.739,-0.746,-0.7472,-0.7481,-0.7483,-0.7484,-0.7483,-0.7504,-0.7499,-0.7483,-0.7482,-0.7482,-0.7481,0,-0.7032,-0.7043,-0.7119,-0.7154,-0.7164,-0.7214,-0.7244,-0.7286,-0.7298,-0.7359,-0.7373,-0.7394,-0.7448,-0.7461,-0.7527,-0.7532,-0.7616,-0.761,-0.7604,-0.7604,-0.7654,-0.765,-0.7812,-0.7834,-0.7695,-0.7697,-0.7698,0,-0.7102,-0.7149,-0.7188,-0.7219,-0.724,-0.7289,-0.732,-0.7326,-0.7359,-0.7404,-0.7441,-0.7494,-0.7537,-0.7625,-0.7647,-0.7697,-0.7694,-0.7747,-0.7702,-0.77,-0.7697,-0.7695,-0.77,-0.7757,-0.7758,-0.7759,-0.776,0,-0.7226,-0.7229,-0.7274,-0.7321,-0.7357,-0.7395,-0.743,-0.7456,-0.7466,-0.7504,-0.7559,-0.7592,-0.7658,-0.7712,-0.7761,-0.7783,-0.7774,-0.7774,-0.7789,-0.7791,-0.7786,-0.7791,-0.763,-0.7771,-0.777,-0.7769,-0.7769,-0.7768,-0.7315,-0.7356,-0.739,-0.744,-0.7467,-0.75,-0.7542,-0.7559,-0.7604,-0.7658,-0.7658,-0.7718,-0.7754,-0.782,-0.7844,-0.7892,-0.7876,-0.7897,-0.7902,-0.7908,-0.7913,-0.7775,-0.7901,-0.79,-0.79,-0.79,-0.79,0,-0.744,-0.7461,-0.7507,-0.7556,-0.7596,-0.7581,-0.7619,-0.7654,-0.7707,-0.774,-0.7782,-0.7845,-0.7897,-0.7921,-0.7972,-0.8006,-0.8003,-0.8019,-0.8018,-0.8024,-0.7924,-0.7907,-0.8021,-0.8021,-0.8021,-0.8021,-0.8021,-0.8021,-0.7511,-0.758,-0.7587,-0.767,-0.769,-0.7749,-0.7772,-0.7803,-0.7829,-0.79,-0.7942,-0.7957,-0.7987,-0.804,-0.8087,-0.8093,-0.8113,-0.8131,-0.8136,-0.8043,-0.8031,-0.8019,-0.8003,-0.8135,-0.8135,-0.8232,-0.8233,-0.8233]},{"header":{"parameterUnit":"m.s-1","parameterCategory":1,"la1":30.2991,"la2":30.254,"lo1":-89.0895,"lo2":-89.0444,"dy":0.0017,"dx":0.0017,"nx":28,"ny":28,"refTime":"2025-11-26T09:00:00:Z","depth":0,"parameterNumber":3,"parameterNumberName":"V-component_of_WINDS"},"data":[0,0,0,0,0,0,0,0,0,0,0,0,0,0,0,0,0,0,0,0,0,0,0,0,0,0,0,0,0,0,0,0,0,0,0,0,0,0,0,0,0,0,0,0,0,0,0,0,0,0,0,0,0,0,0,0,0,0,-6.5984,-6.5985,0,-6.6106,-6.6107,-6.6108,-6.6018,-6.6014,-6.601,-6.6006,-6.6126,-6.6133,-6.6139,0,0,0,0,0,0,0,0,0,0,0,0,0,-6.5669,-6.5675,-6.5984,-6.5986,-6.5987,-6.6105,-6.6107,-6.6109,-6.6018,-6.6013,-6.6009,-6.6004,-6.6124,-6.6132,-6.614,0,0,0,0,0,0,0,0,0,0,0,0,0,-6.58,-6.5677,-6.5984,-6.5956,-6.5955,-6.6105,-6.6107,-6.6109,-6.6019,-6.6013,-6.6007,-6.6002,-6.6121,-6.6131,-6.6141,-6.6323,0,0,-6.6173,-6.6177,0,0,0,0,0,0,0,0,-6.5792,-6.5811,-6.5959,-6.5958,-6.5957,-6.604,-6.604,-6.6181,-6.6021,-6.5995,-6.6006,-6.5999,-6.6102,-6.6113,-6.6149,-6.6329,-6.6334,-6.6173,-6.618,-6.6184,-6.6187,0,0,0,0,0,0,0,-6.5783,-6.5805,-6.6032,-6.5961,-6.596,-6.5936,-6.5948,-6.6066,-6.608,-6.5997,-6.599,-6.6006,-6.61,-6.6139,-6.6151,-6.6336,-6.6173,-6.6182,-6.6189,-6.6193,-6.667,-6.6676,0,0,0,0,0,0,-6.5777,-6.5799,-6.6028,-6.6035,-6.5859,-6.5947,-6.596,-6.602,-6.6078,-6.6082,-6.6011,-6.6001,-6.6125,-6.6139,-6.6155,-6.6372,-6.6184,-6.6194,-6.62,-6.6664,-6.6672,-6.6679,0,0,0,0,0,0,-6.5771,-6.5799,-6.6023,-6.5915,-6.5942,-6.5959,-6.6026,-6.6025,-6.6064,-6.6089,-6.6091,-6.6049,-6.6121,-6.6141,-6.6282,-6.6375,-6.6198,-6.6208,-6.6656,-6.6666,-6.6675,-6.6808,0,0,0,0,0,0,-6.5762,-6.5797,-6.5868,-6.5918,-6.5948,-6.615,-6.6032,-6.6032,-6.6083,-6.6071,-6.6125,-6.6128,-6.6117,-6.6267,-6.6293,-6.6386,-6.6216,-6.6648,-6.666,-6.6672,-6.6795,-6.6821,-6.6843,0,0,0,0,0,-6.5752,-6.5899,-6.5872,-6.59,-6.6037,-6.6156,-6.6173,-6.6159,-6.6091,-6.6161,-6.6177,-6.6127,-6.6361,-6.6283,-6.631,-6.6408,-6.6642,-6.6657,-6.6671,-6.6784,-6.6816,-6.6842,0,0,0,0,0,0,-6.5858,-6.5905,-6.5875,-6.6044,-6.6097,-6.614,-6.6229,-6.6192,-6.6264,-6.6251,-6.6228,-6.6241,-6.639,-6.6413,-6.6325,-6.6587,-6.649,-6.6511,-6.6567,-6.6597,-6.662,-6.6612,-6.6224,0,0,0,0,0,-6.5902,-6.5996,-6.6031,-6.6176,-6.6205,-6.6213,-6.6263,-6.6248,-6.6301,-6.6322,-6.6349,-6.6401,-6.6486,-6.6542,-6.6622,-6.6798,-6.6808,-6.6878,-6.6902,-6.6922,-6.694,-6.7034,-6.7066,-6.6727,-6.6726,-6.6726,0,0,-6.5992,-6.6029,-6.609,-6.6199,-6.6238,-6.6334,-6.6232,-6.6338,-6.6409,-6.6338,-6.6474,-6.6495,-6.6551,-6.6711,-6.6783,-6.6735,-6.7036,-6.694,-6.6956,-6.6963,-6.7052,-6.7084,-6.7113,-6.6736,-6.6735,-6.6733,0,0,-6.6206,-6.6244,-6.6369,-6.6411,-6.6471,-6.6476,-6.6506,-6.6555,-6.6567,-6.6703,-6.6652,-6.6735,-6.6882,-6.6925,-6.6965,-6.7195,-6.7151,-6.7221,-6.7346,-6.7438,-6.7465,-6.7488,-6.757,-6.76,-6.724,-6.724,-6.724,0,-6.631,-6.6455,-6.6437,-6.6548,-6.6597,-6.6539,-6.6665,-6.6705,-6.6789,-6.6823,-6.6769,-6.6952,-6.6986,-6.7155,-6.7211,-6.7246,-6.7278,-6.7215,-6.7462,-6.7486,-6.7508,-6.7585,-6.7616,-6.7248,-6.7247,-6.7246,-6.7245,0,-6.6579,-6.668,-6.6774,-6.6858,-6.6917,-6.7035,-6.7034,-6.7096,-6.7075,-6.7085,-6.7224,-6.7262,-6.7349,-6.7387,-6.7368,-6.7553,-6.7522,-6.7466,-6.7368,-6.7548,-6.7621,-6.7651,-6.726,-6.7257,-6.7254,-6.7252,0,0,-6.6864,-6.6937,-6.6972,-6.7009,-6.7072,-6.7149,-6.7263,-6.7349,-6.7403,-6.7461,-6.7556,-6.7682,-6.7631,-6.7677,-6.7661,-6.7742,-6.7921,-6.7675,-6.7676,-6.772,-6.8127,-6.817,-6.8205,-6.7892,-6.7898,-6.7902,-6.8123,0,-6.7081,-6.7282,-6.727,-6.7459,-6.7551,-6.7497,-6.7596,-6.7645,-6.7657,-6.7736,-6.7747,-6.7837,-6.7762,-6.779,-6.7867,-6.7883,-6.8003,-6.7867,-6.7979,-6.7983,-6.7967,-6.8243,-6.8288,-6.8494,-6.8151,-6.8156,-6.8159,0,-6.7361,-6.7432,-6.763,-6.7679,-6.7717,-6.7807,-6.7885,-6.7962,-6.8015,-6.8017,-6.807,-6.8041,-6.8154,-6.8054,-6.821,-6.8118,-6.8163,-6.8177,-6.8185,-6.8195,-6.8083,-6.826,-6.856,-6.8591,-6.8204,-6.82,-6.8197,0,-6.7549,-6.7694,-6.7831,-6.7864,-6.7925,-6.7989,-6.8017,-6.8064,-6.8117,-6.8184,-6.8217,-6.8297,-6.834,-6.8401,-6.8393,-6.8321,-6.8552,-6.8451,-6.8557,-6.8557,-6.8608,-6.8605,-6.8919,-6.8637,-6.8637,-6.8636,-6.8635,0,-6.7793,-6.7917,-6.7916,-6.8001,-6.8137,-6.8121,-6.8256,-6.8276,-6.8319,-6.8405,-6.8362,-6.8443,-6.8428,-6.8509,-6.8504,-6.8633,-6.8653,-6.8658,-6.8655,-6.8662,-6.8662,-6.8691,-6.8677,-6.8644,-6.8642,-6.8641,-6.8639,0,-6.8026,-6.8031,-6.8177,-6.8223,-6.8237,-6.8336,-6.8373,-6.8453,-6.846,-6.857,-6.8595,-6.8607,-6.87,-6.8699,-6.8804,-6.88,-6.896,-6.894,-6.8943,-6.8939,-6.9045,-6.9035,-6.9389,-6.9435,-6.9123,-6.9126,-6.9128,0,-6.8182,-6.8276,-6.8332,-6.8387,-6.842,-6.851,-6.8563,-6.855,-6.8608,-6.8675,-6.8746,-6.8836,-6.8907,-6.9058,-6.9075,-6.9155,-6.9137,-6.9256,-6.9149,-6.9153,-6.9139,-6.9134,-6.9143,-6.9277,-6.928,-6.9283,-6.9285,0,-6.8457,-6.8455,-6.8535,-6.8617,-6.8682,-6.8745,-6.8802,-6.885,-6.8843,-6.8909,-6.9005,-6.906,-6.9169,-6.9258,-6.9335,-6.9361,-6.9323,-6.9319,-6.9348,-6.9356,-6.9354,-6.9357,-6.9,-6.9311,-6.9308,-6.9306,-6.9305,-6.9304,-6.8656,-6.8737,-6.879,-6.888,-6.8922,-6.8977,-6.9054,-6.9072,-6.9152,-6.9241,-6.9227,-6.9334,-6.9384,-6.9484,-6.9517,-6.9599,-6.9557,-6.9599,-6.961,-6.962,-6.9632,-6.9341,-6.9613,-6.9613,-6.9612,-6.9611,-6.9611,0,-6.893,-6.8961,-6.9044,-6.9127,-6.9198,-6.9156,-6.9218,-6.9279,-6.9375,-6.9425,-6.9496,-6.9605,-6.9691,-6.9716,-6.9798,-6.9859,-6.9844,-6.9881,-6.9877,-6.9884,-6.9665,-6.9632,-6.9893,-6.9893,-6.9893,-6.9893,-6.9893,-6.9893,-6.908,-6.9215,-6.9219,-6.9374,-6.9403,-6.9509,-6.9548,-6.9598,-6.9638,-6.9763,-6.9835,-6.985,-6.989,-6.9975,-7.0052,-7.0056,-7.0089,-7.0134,-7.0132,-6.9927,-6.9899,-6.9872,-6.9841,-7.0141,-7.0142,-7.0343,-7.0345,-7.0347]}]]